Temperature
15 15 15 15 15 15 15 15 15 15 15 15 15 15 15 15 15 15 15 15 15 15 15 15 15 15 15 15 15 15 15 15 15 14 14 14 14 14 14 14 14 14 14
15 15 15 15 15 15 15 15 15 15 15 15 15 15 15 15 15 15 15 15 15 15 15 15 15 15 15 15 14 14 14 14 14 14 14 14 14 14 14 14 14 14 14
15 15 15 15 15 15 15 15 15 15 15 15 15 15 15 15 14 14 15 14 14 14 14 14 14 14 14 14 14 14 14 14 14 14 14 14 14 14 14 14 14 14 14
15 15 15 15 15 15 15 15 15 15 15 15 14 14 14 14 14 14 14 14 14 14 14 14 14 14 14 14 14 14 14 14 14 14 14 14 13 13 14 13 13 13 13
15 15 15 15 15 15 15 15 15 15 15 14 14 14 14 14 14 14 14 14 14 14 14 14 14 14 14 14 14 14 14 14 13 14 13 13 13 13 13 13 13 13 13
15 15 15 15 15 15 15 15 15 14 14 14 14 14 14 14 14 14 14 14 14 14 14 14 14 14 14 14 14 13 13 13 13 13 13 13 13 13 13 13 13 13 13
15 15 14 14 14 15 14 14 14 14 14 14 14 14 14 14 14 14 14 13 14 14 14 14 14 14 14 14 13 13 13 13 13 13 13 13 13 13 12 12 13 12 12
15 15 14 14 14 14 14 14 14 14 14 14 14 14 13 13 13 13 13 13 13 13 13 13 13 13 13 13 13 13 13 13 12 12 12 12 12 12 12 12 12 12 12
15 15 14 14 14 14 14 14 14 14 14 14 14 14 14 13 13 13 13 13 13 13 13 13 13 13 13 13 13 13 12 12 12 12 12 12 12 12 12 12 12 12 12
15 15 14 14 14 14 14 14 14 14 14 14 14 14 14 14 13 13 13 13 13 13 13 13 13 13 13 13 12 12 12 12 12 12 12 12 12 12 12 12 12 12 12
14 14 14 14 14 14 14 14 14 14 14 14 14 14 14 14 13 13 13 13 13 13 13 13 12 12 12 12 12 12 12 12 12 12 12 12 11 11 11 11 11 11 11
15 14 14 14 14 14 14 14 14 14 14 14 14 14 14 13 13 13 13 13 13 13 13 13 12 12 12 12 12 12 12 12 12 12 12 11 11 11 11 11 11 11 11
15 15 14 15 14 14 14 14 14 14 14 14 14 14 14 14 13 13 13 13 13 13 12 12 12 12 12 12 12 12 12 11 12 11 11 11 11 11 11 10 10 10 10
15 15 15 15 15 14 14 14 14 14 14 14 14 14 14 14 14 13 13 13 13 12 12 12 12 12 12 12 12 12 12 11 11 11 11 11 11 11 11 10 10 10 10
15 15 15 15 15 14 14 14 14 14 14 14 14 14 14 14 13 13 13 13 13 13 12 12 12 12 12 12 12 12 11 11 11 11 11 11 11 11 11 10 10 10 10
15 15 15 15 14 14 14 14 14 14 14 14 14 14 14 14 13 13 13 13 13 13 12 12 12 12 12 12 12 11 11 11 11 11 11 11 10 10 10 10 10 10 10
15 15 15 14 14 14 14 14 14 14 14 14 14 14 14 14 13 13 13 13 13 13 12 12 12 12 11 11 11 11 11 11 11 11 11 10 10 10 10 10 10 10 9
15 15 15 14 14 14 14 14 14 14 14 14 13 13 13 13 13 13 13 13 13 13 12 12 12 12 11 11 11 11 11 11 11 11 10 10 10 10 10 10 9 9 9
15 15 14 14 14 14 14 14 14 14 14 13 13 13 13 13 13 13 13 13 13 12 12 12 12 11 11 11 11 11 11 11 10 10 10 10 10 10 10 9 9 9 9
14 14 14 14 14 14 14 14 14 14 14 13 13 13 13 13 13 13 13 13 12 12 12 12 12 11 11 11 11 11 11 10 10 10 10 10 10 9 9 9 9 9 9
14 14 14 14 14 14 14 14 14 13 13 13 13 13 13 13 13 13 13 12 12 12 12 12 11 11 11 11 11 10 10 10 10 10 10 10 9 9 9 9 9 8 8
14 14 14 14 14 14 14 14 13 13 13 13 13 13 13 13 12 12 12 12 12 12 12 12 11 11 11 11 11 10 10 10 10 10 9 9 9 9 9 9 8 8 8
14 14 14 14 14 14 13 13 13 13 13 13 13 13 13 12 12 12 12 12 12 11 11 11 11 11 11 11 10 10 10 10 9 9 9 9 9 9 9 8 8 8 8
13 14 14 14 13 13 13 13 13 13 13 13 12 12 12 12 12 12 12 12 12 11 11 11 11 11 10 10 10 10 10 9 9 9 9 9 8 8 8 8 8 8 7
13 13 13 13 13 13 13 13 13 13 13 12 12 12 12 12 12 12 12 11 11 11 11 11 10 10 10 10 10 10 9 9 9 9 8 8 8 8 8 8 7 7 7
13 13 13 13 13 13 13 12 12 12 12 12 12 12 12 12 12 11 11 11 11 11 11 10 10 10 10 10 9 9 9 9 9 8 8 8 8 7 7 7 7 7 7
Wind_Speed
3 4 4 5 6 7 7 6 7 7 7 7 8 8 8 9 9 10 9 11 11 10 9 9 9 9 9 9 9 9 10 10 10 11 11 11 11 11 12 12 12 12 12
4 4 4 4 5 6 6 6 6 6 6 6 6 7 8 8 9 9 9 10 11 10 10 9 9 9 10 10 10 10 10 10 10 11 11 11 11 11 12 12 12 12 13
5 5 3 3 4 6 7 7 7 6 5 5 6 6 7 8 8 9 9 9 9 10 11 10 10 10 11 11 11 11 11 11 12 12 12 11 11 11 11 11 12 12 12
6 5 4 3 5 6 6 4 4 5 5 4 4 4 5 6 8 8 9 9 9 9 9 10 11 10 10 10 11 11 11 11 11 12 11 11 10 10 11 11 11 11 11
6 6 4 4 6 5 4 4 4 4 4 4 4 5 5 5 5 6 7 8 9 9 9 10 10 10 9 9 10 11 11 11 11 11 11 10 10 10 10 10 11 11 11
6 6 5 5 5 4 4 4 5 4 3 4 5 5 5 4 4 5 5 6 8 8 9 9 9 9 10 9 9 10 10 10 10 10 10 10 10 10 10 10 11 11 11
5 5 4 4 4 4 4 4 4 4 3 2 4 3 4 5 5 4 4 4 5 7 8 8 8 8 8 9 9 8 9 10 10 10 10 10 10 9 10 10 10 10 11
4 4 4 3 3 4 4 3 3 3 2 2 2 2 2 3 4 4 3 3 3 4 5 6 7 7 7 7 8 9 9 9 9 9 9 9 9 9 9 9 9 10 10
3 4 4 4 3 3 3 2 3 3 2 2 2 3 3 1 1 3 4 4 3 3 3 4 5 5 6 7 7 8 8 8 8 8 8 8 8 8 8 8 8 9 9
3 3 4 4 3 3 2 2 2 2 3 2 1 2 2 3 2 0 3 3 3 3 3 3 4 4 5 5 6 7 7 8 8 8 8 8 8 8 8 7 7 8 8
2 3 3 3 3 2 2 2 2 2 2 2 2 1 2 2 2 2 0 2 3 2 2 2 3 3 3 3 4 5 6 7 8 7 8 8 7 7 7 7 7 7 7
1 2 3 3 3 2 2 2 2 3 2 2 2 2 2 2 2 2 2 0 1 2 2 2 2 2 3 3 3 4 5 6 7 7 7 7 6 6 6 7 7 6 6
0 1 1 2 2 2 3 2 2 2 2 2 2 1 1 1 2 3 3 2 1 1 2 2 2 2 2 2 2 4 5 6 6 7 7 7 7 6 5 5 6 7 7
2 2 2 2 2 3 3 3 2 1 2 2 2 2 1 0 1 2 3 3 2 1 2 2 2 2 1 2 2 4 4 5 5 6 6 7 7 6 6 6 7 7 7
1 2 2 2 2 2 3 3 2 1 2 1 1 2 1 0 1 1 2 3 4 2 0 1 1 1 1 2 2 4 4 5 5 5 6 6 6 6 6 6 6 7 7
1 2 2 2 2 2 3 3 2 1 2 1 1 2 1 1 1 1 2 1 2 3 2 1 1 1 1 2 3 4 4 4 5 5 5 6 6 6 6 6 5 5 5
2 2 2 2 2 2 2 3 2 2 2 1 1 2 1 1 2 1 2 2 2 3 3 0 1 1 2 2 3 4 4 3 3 4 4 4 4 5 5 5 5 5 5
2 3 3 3 3 3 3 3 3 3 3 2 2 2 1 2 2 2 2 2 2 2 3 2 0 1 1 1 2 3 3 2 2 2 3 3 3 4 4 4 4 5 5
2 2 3 3 3 3 3 3 3 3 3 2 2 3 2 3 2 1 2 2 2 2 2 3 2 1 1 1 2 2 2 2 2 1 1 1 2 2 3 3 3 3 4
2 2 3 3 3 3 3 3 3 3 3 2 2 2 3 4 4 3 2 2 3 3 3 3 2 1 1 1 2 1 1 1 1 2 2 2 2 2 2 2 2 3 2
2 2 2 2 2 2 2 3 3 3 3 2 2 2 2 4 4 4 3 4 4 4 4 3 2 2 1 1 1 1 1 0 1 1 2 2 2 2 3 2 2 1 2
2 2 2 2 2 2 4 6 5 3 3 3 2 1 1 2 3 4 5 6 6 5 5 4 2 2 2 2 1 2 2 1 1 1 1 1 1 1 2 2 1 1 1
2 2 2 2 2 2 4 5 7 5 4 3 3 2 2 2 3 2 3 4 4 4 5 5 4 3 3 3 3 3 2 2 2 1 1 1 1 1 2 2 2 2 1
2 2 3 3 2 2 4 5 7 5 3 3 3 3 3 1 2 4 3 3 2 1 3 3 4 4 3 4 4 4 3 2 0 0 1 1 1 1 2 3 3 2 2
2 2 2 3 3 3 4 5 7 4 3 2 2 3 3 3 3 6 5 3 1 1 1 3 3 2 2 4 5 4 3 2 0 1 1 1 1 1 2 2 3 3 2
3 2 2 2 3 3 4 5 6 4 3 2 2 2 4 4 4 6 5 4 3 3 1 1 1 0 1 3 5 4 4 3 1 2 2 2 1 0 2 2 2 3 3
Wind_Direction
76 71 67 65 66 74 78 80 78 75 70 69 70 70 63 57 55 53 50 60 65 67 68 71 74 74 76 77 78 80 81 76 75 76 73 73 70 70 69 68 69 68 65
99 91 78 74 71 77 84 85 84 81 72 69 65 65 64 58 54 53 48 48 52 57 60 63 68 70 74 78 79 81 82 78 75 77 77 75 72 69 67 67 68 68 65
105 103 91 78 80 89 92 90 81 80 76 68 59 58 59 56 53 50 49 47 46 49 53 58 65 69 70 73 77 79 81 79 75 75 75 74 73 72 68 67 66 67 65
110 106 97 88 96 96 95 91 85 81 73 69 62 51 51 51 48 49 50 47 46 45 47 55 62 66 67 70 75 79 83 81 76 74 74 74 74 76 73 70 69 66 64
107 106 100 98 101 95 88 97 81 89 89 79 72 56 44 45 42 49 48 46 46 49 50 50 54 57 62 66 70 74 76 76 75 75 75 75 75 76 75 74 71 67 65
106 104 101 100 103 94 83 87 90 78 85 87 80 62 46 44 44 43 43 45 46 49 50 50 48 45 50 61 68 70 71 72 73 75 76 75 76 75 74 74 72 68 68
109 106 104 97 98 101 107 108 103 91 73 82 82 57 35 41 41 32 41 45 43 46 51 50 47 44 40 44 56 67 70 72 75 75 76 75 75 76 76 76 73 67 66
117 120 114 111 107 106 104 106 109 101 72 59 103 95 41 16 18 24 27 37 33 43 49 48 50 46 42 41 47 62 70 71 73 75 74 73 74 76 74 75 72 66 64
108 123 124 121 119 122 132 132 123 122 126 54 68 123 129 181 342 357 19 31 38 42 40 46 47 44 45 46 46 58 70 70 71 71 71 72 74 76 77 75 71 67 64
101 121 132 133 128 128 134 144 121 120 128 124 67 60 111 143 139 12 359 18 35 41 35 45 43 42 46 49 51 59 66 68 69 69 69 69 73 75 76 74 72 68 65
83 115 136 139 135 135 138 127 111 110 113 131 136 127 93 75 94 137 327 354 21 27 33 40 42 38 39 47 57 66 65 66 67 66 64 65 69 72 72 69 67 66 65
52 100 131 134 138 137 140 140 126 115 113 117 123 129 141 143 158 142 148 121 10 3 30 32 33 26 28 41 66 81 76 69 66 62 60 58 61 65 70 71 64 61 64
205 201 141 142 144 146 140 133 120 114 123 131 142 139 137 154 152 141 137 140 93 6 13 17 13 17 26 46 65 81 83 78 72 67 62 57 56 60 63 67 65 62 57
209 194 163 157 150 144 134 122 114 120 119 129 137 129 117 129 147 152 153 142 108 31 20 341 357 13 29 66 78 85 82 79 74 70 64 61 59 66 68 67 65 60 56
192 161 152 149 148 142 134 132 130 131 127 125 135 134 129 140 136 155 156 152 144 137 312 307 324 359 37 78 83 91 89 81 77 71 68 64 61 69 76 72 67 61 56
167 141 142 148 141 140 144 144 143 142 132 132 139 128 121 118 114 118 140 141 147 150 167 255 249 321 52 87 91 97 91 78 76 75 74 66 63 70 77 76 70 62 58
168 165 167 159 152 152 154 153 161 159 154 159 149 139 138 119 116 111 115 121 126 133 152 234 40 41 65 73 72 80 81 76 72 71 67 63 65 73 77 78 72 66 58
181 174 161 159 165 164 165 166 171 166 168 175 179 151 160 129 117 112 118 121 129 139 147 159 103 44 61 92 88 82 78 86 76 60 67 70 73 72 77 76 68 63 59
162 155 155 168 180 177 173 173 168 163 166 178 176 166 165 137 131 120 124 126 123 118 120 141 150 102 71 93 84 69 67 52 54 37 44 55 66 64 67 68 65 61 54
160 171 170 175 178 175 173 167 160 162 157 154 156 153 157 163 168 161 144 140 129 116 113 119 120 97 88 100 106 112 68 41 28 29 32 45 65 62 51 49 54 49 39
170 166 154 151 151 157 169 165 160 154 148 140 139 150 159 164 165 160 150 147 139 132 128 125 127 112 112 133 182 181 164 58 7 27 36 20 34 30 13 8 7 12 16
155 144 154 157 155 168 152 154 148 143 142 148 152 134 132 132 147 148 143 139 141 146 154 147 148 162 195 198 164 154 149 98 321 341 101 357 37 358 334 340 340 339 333
157 157 172 166 173 178 157 152 149 142 141 153 160 152 138 127 127 124 124 126 137 146 154 155 158 185 193 199 168 161 168 165 213 260 131 309 353 317 321 326 323 314 312
169 181 182 180 180 192 164 159 153 142 142 159 166 163 163 178 150 143 130 112 114 150 178 168 181 193 190 180 174 175 175 154 139 22 129 215 288 286 317 310 318 306 294
179 188 182 179 186 209 177 165 152 149 157 187 194 174 177 194 183 158 143 145 154 272 207 192 193 187 173 161 151 125 126 127 247 275 184 184 250 280 293 291 305 316 290
200 189 193 201 198 213 191 176 165 163 174 202 214 210 196 195 190 170 166 167 189 231 193 143 125 93 120 149 161 161 167 162 175 249 220 179 208 227 301 294 310 316 305
Height
1536 1536 1536 1536 1536 1536 1537 1537 1537 1537 1537 1537 1537 1538 1538 1538 1539 1539 1539 1539 1539 1539 1539 1539 1539 1539 1539 1539 1538 1538 1539 1539 1539 1539 1539 1539 1539 1539 1540 1540 1539 1539 1539
1537 1537 1537 1537 1538 1538 1538 1538 1538 1538 1539 1539 1539 1539 1540 1540 1540 1540 1540 1540 1540 1540 1540 1540 1540 1540 1540 1539 1539 1539 1539 1539 1539 1539 1539 1540 1540 1540 1540 1540 1540 1540 1540
1538 1538 1539 1539 1539 1539 1539 1540 1540 1540 1540 1540 1540 1541 1541 1541 1542 1542 1542 1542 1541 1541 1542 1541 1541 1541 1541 1540 1540 1539 1540 1540 1540 1540 1540 1540 1540 1541 1541 1541 1541 1541 1540
1539 1539 1540 1540 1540 1540 1541 1541 1541 1541 1541 1542 1542 1542 1542 1543 1543 1543 1543 1543 1543 1542 1542 1542 1542 1542 1542 1541 1541 1541 1541 1541 1541 1541 1541 1541 1541 1541 1541 1541 1541 1541 1541
1540 1540 1541 1541 1541 1541 1542 1542 1542 1542 1542 1543 1543 1543 1543 1544 1544 1544 1544 1544 1544 1543 1543 1543 1543 1543 1543 1542 1542 1542 1542 1542 1542 1541 1541 1541 1541 1541 1542 1542 1541 1541 1541
1541 1541 1541 1542 1542 1543 1543 1543 1543 1543 1544 1544 1544 1544 1545 1545 1545 1545 1545 1545 1545 1544 1544 1544 1544 1544 1543 1543 1543 1543 1542 1542 1542 1542 1542 1542 1542 1542 1542 1542 1542 1542 1542
1542 1542 1542 1543 1543 1544 1544 1544 1544 1544 1544 1545 1545 1545 1546 1546 1546 1546 1545 1545 1545 1545 1545 1544 1544 1544 1544 1544 1543 1543 1543 1543 1543 1543 1543 1543 1543 1543 1543 1543 1543 1543 1542
1543 1543 1543 1544 1544 1544 1544 1545 1545 1545 1545 1545 1545 1545 1546 1547 1546 1546 1545 1545 1545 1545 1545 1545 1545 1545 1545 1545 1544 1544 1544 1543 1544 1544 1543 1543 1543 1543 1543 1544 1543 1543 1543
1543 1544 1544 1544 1545 1545 1545 1545 1546 1545 1545 1546 1546 1546 1546 1546 1547 1547 1545 1545 1545 1545 1545 1545 1545 1545 1545 1545 1545 1544 1544 1544 1544 1544 1544 1544 1544 1544 1544 1544 1544 1544 1544
1544 1544 1544 1545 1545 1546 1546 1546 1546 1546 1546 1546 1546 1546 1547 1547 1547 1546 1546 1545 1545 1545 1545 1546 1546 1546 1546 1545 1545 1545 1545 1545 1545 1545 1544 1544 1544 1544 1544 1545 1544 1544 1544
1544 1545 1545 1545 1545 1546 1546 1546 1546 1547 1547 1547 1547 1547 1546 1547 1546 1546 1546 1546 1545 1546 1546 1546 1546 1546 1546 1546 1546 1546 1546 1545 1545 1545 1545 1545 1545 1545 1545 1545 1545 1544 1544
1545 1545 1545 1545 1546 1546 1546 1547 1547 1547 1547 1547 1547 1547 1546 1546 1546 1546 1546 1545 1545 1546 1546 1546 1546 1546 1546 1546 1546 1546 1546 1546 1546 1546 1546 1545 1545 1545 1545 1545 1544 1544 1544
1545 1545 1545 1545 1546 1546 1546 1547 1547 1547 1547 1547 1547 1547 1546 1546 1546 1546 1546 1545 1545 1545 1545 1546 1546 1546 1546 1546 1546 1547 1547 1547 1547 1547 1546 1546 1545 1545 1545 1545 1544 1544 1544
1544 1545 1545 1545 1546 1546 1546 1546 1546 1546 1546 1546 1546 1546 1546 1546 1546 1546 1546 1545 1545 1545 1545 1546 1546 1546 1546 1546 1547 1547 1547 1547 1547 1547 1546 1546 1546 1545 1545 1544 1544 1544 1543
1544 1544 1545 1545 1545 1545 1546 1546 1546 1546 1546 1546 1546 1546 1545 1545 1545 1545 1545 1545 1545 1544 1545 1545 1546 1546 1546 1546 1547 1547 1547 1547 1547 1547 1546 1546 1546 1545 1545 1544 1544 1543 1543
1543 1543 1544 1544 1544 1544 1545 1545 1545 1545 1545 1545 1545 1545 1545 1545 1545 1545 1545 1544 1545 1545 1545 1545 1546 1546 1546 1547 1547 1547 1547 1547 1547 1547 1547 1546 1545 1545 1544 1544 1543 1543 1542
1542 1542 1543 1543 1543 1543 1543 1544 1544 1544 1544 1544 1544 1544 1544 1544 1544 1544 1544 1544 1544 1544 1544 1545 1545 1546 1546 1546 1547 1547 1547 1547 1547 1547 1546 1546 1545 1545 1544 1544 1543 1542 1542
1540 1541 1542 1542 1542 1542 1542 1542 1542 1543 1543 1543 1543 1543 1543 1543 1543 1543 1543 1543 1543 1543 1543 1543 1544 1545 1545 1546 1546 1546 1546 1546 1546 1546 1546 1545 1545 1544 1544 1543 1542 1541 1540
1539 1539 1540 1540 1541 1541 1541 1541 1541 1541 1541 1541 1541 1541 1541 1541 1541 1542 1542 1542 1542 1543 1543 1543 1543 1544 1544 1545 1545 1545 1545 1545 1545 1545 1545 1544 1544 1543 1542 1542 1541 1540 1539
1537 1538 1538 1539 1539 1539 1539 1540 1540 1540 1540 1540 1540 1540 1540 1540 1540 1541 1541 1541 1541 1541 1542 1542 1542 1542 1543 1543 1544 1544 1544 1544 1544 1544 1544 1543 1543 1542 1541 1541 1540 1539 1538
1535 1536 1536 1537 1537 1538 1538 1538 1538 1538 1538 1539 1539 1539 1539 1539 1539 1539 1540 1540 1540 1540 1540 1540 1541 1541 1542 1542 1542 1542 1542 1542 1542 1542 1542 1542 1541 1541 1540 1539 1538 1537 1536
1533 1533 1534 1535 1535 1535 1536 1536 1537 1537 1537 1537 1537 1537 1538 1538 1538 1538 1538 1539 1539 1539 1539 1539 1539 1540 1540 1540 1540 1540 1540 1540 1540 1541 1540 1540 1539 1539 1538 1537 1536 1535 1535
1530 1531 1532 1532 1533 1534 1534 1535 1535 1535 1535 1536 1536 1536 1536 1536 1537 1537 1537 1537 1537 1537 1538 1538 1538 1538 1538 1538 1538 1538 1538 1538 1538 1538 1538 1537 1537 1537 1536 1535 1534 1533 1532
1528 1529 1529 1530 1531 1531 1532 1533 1533 1533 1534 1534 1534 1535 1535 1535 1535 1536 1536 1536 1536 1536 1536 1536 1536 1537 1537 1537 1537 1537 1536 1536 1536 1536 1536 1535 1534 1534 1533 1533 1532 1531 1530
1525 1526 1527 1527 1528 1529 1530 1530 1531 1531 1531 1532 1532 1533 1533 1534 1534 1534 1534 1534 1535 1535 1535 1535 1535 1535 1535 1535 1535 1534 1534 1534 1533 1533 1533 1532 1531 1531 1530 1529 1529 1528 1527
1522 1523 1523 1524 1525 1526 1527 1527 1528 1528 1529 1529 1530 1530 1531 1531 1532 1532 1532 1532 1532 1533 1533 1533 1533 1533 1533 1532 1532 1532 1532 1531 1531 1530 1530 1530 1529 1528 1527 1526 1525 1525 1523